Waukegan, IL

9:14 AM CDT on July 24, 2016 (GMT -0500)
Waukegan Regional

Weather History for KUGN - June, 2014

Change the Weather History Date:

Friday, June 6, 2014

  Actual Average Record
Temperature  
Mean Temperature 62 °F -  
Max Temperature 75 °F 73 °F 94 °F (2011)
Min Temperature 49 °F 52 °F 39 °F (2011)
Degree Days  
Heating Degree Days 3 5  
Month to date heating degree days 18 33  
Since 1 June heating degree days 18 33  
Since 1 July heating degree days 7961 6784  
Cooling Degree Days 0 2  
Month to date cooling degree days 20 10  
Year to date cooling degree days 43 35  
Since 1 June cooling degree days 20 10  
Growing Degree Days 12 (Base 50)    
Moisture  
Dew Point 44 °F    
Average Humidity 59    
Maximum Humidity 86    
Minimum Humidity 31    
Precipitation  
Precipitation 0.00 in 0.14 in 0.09 in (2003)
Month to date precipitation 0.61 0.94  
Year to date precipitation 11.45 13.80  
Sea Level Pressure  
Sea Level Pressure 29.98 in    
Wind  
Wind Speed 4 mph (SE)    
Max Wind Speed 12 mph    
Max Gust Speed 13 mph    
Visibility 10 miles    
Events      
T = Trace of Precipitation, MM = Missing Value Source: NWS Daily Summary

Daily Weather History Graph

Daily Weather History Graph

Search for Another Location

Airport or City:

Trip Planner

Search our weather history database for the weather conditions in past years. The results will help you decide how hot, cold, wet, or windy it might be!

Date:

Astronomy

Jun. 06, 2014 Rise Set
Actual Time 5:15 AM CDT 8:25 PM CDT
Civil Twilight 4:40 AM CDT 8:59 PM CDT
Nautical Twilight 3:56 AM CDT 9:44 PM CDT
Astronomical Twilight 3:03 AM CDT 10:37 PM CDT
Moon 1:36 PM CDT (6/6) 1:14 AM CDT (6/6)
Length of Visible Light 16h 19m
Length of Day
15h 10m
First Quarter, 58% of the Moon is Illuminated
Jun 6
First Quarter
Jun 12
Full
Jun 19
Last Quarter
Jun 27
New
Jul 5
First Quarter

Hourly Weather History & Observations

Time (CDT) Temp. Dew Point Humidity Pressure Visibility Wind Dir Wind Speed Gust Speed Precip Events Conditions
12:52 AM 52.0 °F 44.1 °F 74% 29.94 in 10.0 mi Calm Calm - N/A   Clear
1:52 AM 50.0 °F 46.0 °F 86% 29.92 in 10.0 mi Calm Calm - N/A   Clear
2:52 AM 50.0 °F 43.0 °F 77% 29.94 in 10.0 mi Calm Calm - N/A   Clear
3:52 AM 50.0 °F 44.1 °F 80% 29.97 in 10.0 mi Calm Calm - N/A   Scattered Clouds
4:52 AM 50.0 °F 46.0 °F 86% 29.98 in 10.0 mi Calm Calm - N/A   Scattered Clouds
5:52 AM 54.0 °F 46.0 °F 75% 29.99 in 10.0 mi Calm Calm - N/A   Clear
6:52 AM 57.9 °F 44.1 °F 60% 29.99 in 10.0 mi SW 3.5 mph - N/A   Clear
7:52 AM 63.0 °F 44.1 °F 50% 29.99 in 10.0 mi SW 4.6 mph - N/A   Clear
8:52 AM 66.9 °F 43.0 °F 42% 30.00 in 10.0 mi SW 3.5 mph - N/A   Clear
10:52 AM 73.0 °F 46.9 °F 39% 29.99 in 10.0 mi ESE 6.9 mph - N/A   Clear
11:52 AM 73.0 °F 48.0 °F 41% 29.99 in 10.0 mi East 9.2 mph - N/A   Clear
12:52 PM 73.9 °F 48.0 °F 40% 29.98 in 10.0 mi ESE 8.1 mph - N/A   Clear
1:52 PM 72.0 °F 46.9 °F 41% 29.98 in 10.0 mi ESE 9.2 mph - N/A   Clear
2:52 PM 72.0 °F 46.9 °F 41% 29.98 in 10.0 mi ESE 9.2 mph - N/A   Clear
3:52 PM 72.0 °F 42.1 °F 34% 29.99 in 10.0 mi East 8.1 mph - N/A   Clear
4:52 PM 71.1 °F 39.9 °F 32% 29.98 in 10.0 mi ESE 9.2 mph - N/A   Clear
5:52 PM 71.1 °F 43.0 °F 36% 29.96 in 10.0 mi East 5.8 mph - N/A   Clear
6:52 PM 66.9 °F 37.9 °F 34% 29.97 in 10.0 mi ESE 5.8 mph - N/A   Clear
7:52 PM 64.0 °F 36.0 °F 35% 29.97 in 10.0 mi ESE 4.6 mph - N/A   Clear
8:52 PM 59.0 °F 43.0 °F 55% 29.96 in 10.0 mi Calm Calm - N/A   Clear
9:52 PM 61.0 °F 39.9 °F 46% 29.97 in 10.0 mi SSE 3.5 mph - N/A   Clear
10:52 PM 55.0 °F 42.1 °F 62% 30.00 in 10.0 mi SSW 3.5 mph - N/A   Clear
11:52 PM 54.0 °F 42.1 °F 64% 30.00 in 10.0 mi Calm Calm - N/A   Clear